Hourly Weather Roundup
Issued by NWS Central Illinois

Home | Current Version | Previous Version | Text Only | Print | Product List | Glossary On
Versions: 1 2 3 4 5 6 7 8 9 10 11 12 13 14 15 16 17 18 19 20 21 22 23 24 25 26 27 28 29 30 31 32 33 34 35 36 37 38 39 40 41 42 43 44 45 46 47 48 49 50
000
NZUS43 KILX 302310
HWRILX

AREA WEATHER ROUNDUP
NATIONAL WEATHER SERVICE, LINCOLN IL
600 PM CDT TUE SEP 30 2014


CITY           SKY/WX    TMP DP  RH WIND       PRES   REMARKS
BLOOMINGTON    NOT AVBL
CHAMPAIGN      NOT AVBL
DECATUR        CLEAR     71  57  61 NE8       29.94R
FLORA          CLEAR     78  57  47 N3        29.91R
GALESBURG      PTCLDY    66  54  64 E9        29.94R
JACKSONVILLE   CLEAR     76  60  58 NE7       29.92S
LACON          PTCLDY    64  48  55 E7        29.96R
LAWRENCEVILLE  CLEAR     75  63  66 NE6       29.91R
LITCHFIELD     CLEAR     76  57  51 NE3       29.91R
$$


CITY           SKY/WX    TMP DP  RH WIND       PRES   REMARKS
LINCOLN        CLEAR     72  56  56 NE6       29.90S
MACOMB         CLEAR     69  57  65 E8        29.95S
MATTOON        CLEAR     72  56  57 E7        29.92R
MT CARMEL AP   CLEAR     79  59  50 N5        29.90R HX  80
OLNEY-NOBLE AP CLEAR     77  59  53 CALM      29.91R HAZE
PARIS          MOCLDY    69  56  63 NE6       29.95R
PEORIA         CLEAR     68  53  58 NE8       29.94S
PONTIAC        MOCLDY    64  48  55 NE9       29.98S
RANTOUL        MOCLDY    68  48  48 NE10      29.96S
ROBINSON       CLEAR     74  63  68 NE5       29.92R
SPRINGFIELD    CLEAR     75  59  57 NE6       29.92S
TAYLORVILLE    CLEAR     73  55  53 NE7       29.92S
$$

...REGIONAL REPORTS...


CITY           SKY/WX    TMP DP  RH WIND       PRES   REMARKS
CHICAGO O`HARE DRIZZLE   52  50  93 N9        30.01S FOG
KANKAKEE       MOCLDY    56  48  74 N7        30.01R
MOLINE         NOT AVBL
MOUNT VERNON   NOT AVBL
PITTSFIELD     CLEAR     75  60  60 E5        29.91S
QUINCY         CLEAR     73  60  63 E10       29.89S
ROCKFORD       MOCLDY    57  43  59 E12       30.03R
$$


CITY           SKY/WX    TMP DP  RH WIND       PRES   REMARKS
BURLINGTON     CLEAR     70  57  63 E7        29.91F
CEDAR RAPIDS   CLEAR     63  54  72 E12       29.91F
DES MOINES     CLOUDY    70  58  65 E10       29.83S
KIRKSVILLE     CLEAR     73  61  65 E12       29.87S
OTTUMWA        CLEAR     68  57  68 E15       29.87R
ST LOUIS       MOCLDY    82  55  39 E9        29.88S HX  81
$$


CITY           SKY/WX    TMP DP  RH WIND       PRES   REMARKS
TERRE HAUTE    PTCLDY    71  56  58 N6        29.93R
EVANSVILLE     CLEAR     81  58  45 N5        29.89R HX  81
INDIANAPOLIS   MOCLDY    65  52  62 NW6       29.93S
LAFAYETTE      PTCLDY    62  48  60 N10       29.96R
MADISON        CLOUDY    50  42  74 SE8       30.03S
MILWAUKEE      CLOUDY    52  46  80 NE14      30.04R
$$




USA.gov is the U.S. government's official web portal to all federal, state and local government web resources and services.